Weather History for KMYR - January, 2013

Change the Weather History Date:

Tuesday, January 22, 2013

  Actual Average Record
Temperature  
Mean Temperature 40 °F -  
Max Temperature 51 °F 53 °F 73 °F (1999)
Min Temperature 30 °F 33 °F 19 °F (1994)
Degree Days  
Heating Degree Days 24    
Moisture  
Dew Point 24 °F    
Average Humidity 48    
Maximum Humidity 80    
Minimum Humidity 26    
Precipitation  
Precipitation 0.00 in - - ()
Sea Level Pressure  
Sea Level Pressure 30.12 in    
Wind  
Wind Speed 8 mph (WNW)    
Max Wind Speed 16 mph    
Max Gust Speed 17 mph    
Visibility 10 miles    
Events      
Averages and records for this station are not official NWS values.
T = Trace of Precipitation, MM = Missing Value Source: NWS Daily Summary

Daily Weather History Graph

Daily Weather History Graph

Search for Another Location

Airport or City:

Trip Planner

Search our weather history database for the weather conditions in past years. The results will help you decide how hot, cold, wet, or windy it might be!

Date:

Astronomy

Jan. 22, 2013 Rise Set
Actual Time 7:17 AM EST 5:37 PM EST
Civil Twilight 6:51 AM EST 6:04 PM EST
Nautical Twilight 6:20 AM EST 6:34 PM EST
Astronomical Twilight 5:51 AM EST 7:03 PM EST
Moon 2:01 PM EST (1/22) 3:36 AM EST (1/22)
Length of Visible Light 11h 12m
Length of Day
10h 19m
Waxing Gibbous, 82% of the Moon is Illuminated
Jan 22
Waxing Gibbous
Jan 26
Full
Feb 3
Last Quarter
Feb 10
New
Feb 17
First Quarter

Hourly Weather History & Observations

Time (EST) Temp. Windchill Dew Point Humidity Pressure Visibility Wind Dir Wind Speed Gust Speed Precip Events Conditions
12:15 AM 51.8 °F - 30.2 °F 44% 30.01 in 10.0 mi West 9.2 mph - N/A   Clear
12:35 AM 51.8 °F - 30.2 °F 44% 30.01 in 10.0 mi West 9.2 mph - N/A   Clear
12:55 AM 50.0 °F - 30.2 °F 47% 30.01 in 10.0 mi West 6.9 mph - N/A   Clear
1:15 AM 48.2 °F - 30.2 °F 50% 30.01 in 10.0 mi West 8.1 mph - N/A   Clear
1:35 AM 48.2 °F - 30.2 °F 50% 30.01 in 10.0 mi WSW 5.8 mph - N/A   Clear
1:55 AM 48.2 °F - 30.2 °F 50% 30.02 in 10.0 mi West 3.5 mph - N/A   Clear
2:15 AM 46.4 °F 44.3 °F 30.2 °F 53% 30.02 in 10.0 mi West 4.6 mph - N/A   Clear
2:35 AM 46.4 °F 43.5 °F 30.2 °F 53% 30.03 in 10.0 mi WSW 5.8 mph - N/A   Clear
2:55 AM 44.6 °F 40.7 °F 30.2 °F 57% 30.04 in 10.0 mi West 6.9 mph - N/A   Clear
3:15 AM 42.8 °F 38.6 °F 28.4 °F 57% 30.04 in 10.0 mi WNW 6.9 mph - N/A   Clear
3:35 AM 42.8 °F 38.6 °F 26.6 °F 53% 30.04 in 10.0 mi WNW 6.9 mph - N/A   Clear
3:55 AM 44.6 °F 39.7 °F 26.6 °F 49% 30.05 in 10.0 mi WNW 9.2 mph - N/A   Clear
4:15 AM 44.6 °F 40.2 °F 24.8 °F 46% 30.05 in 10.0 mi WNW 8.1 mph - N/A   Clear
4:35 AM 44.6 °F 38.8 °F 24.8 °F 46% 30.05 in 10.0 mi WNW 11.5 mph 17.3 mph N/A   Clear
4:55 AM 44.6 °F 39.7 °F 23.0 °F 43% 30.05 in 10.0 mi WNW 9.2 mph - N/A   Clear
5:15 AM 42.8 °F 39.3 °F 21.2 °F 42% 30.06 in 10.0 mi WNW 5.8 mph - N/A   Clear
5:35 AM 42.8 °F 39.3 °F 24.8 °F 49% 30.07 in 10.0 mi West 5.8 mph - N/A   Clear
5:50 AM 41.0 °F 36.4 °F 26.6 °F 57% 30.08 in 10.0 mi NW 6.9 mph - N/A   Clear
5:55 AM 39.2 °F 35.0 °F 26.6 °F 61% 30.08 in 10.0 mi West 5.8 mph - N/A   Clear
7:45 AM 39.2 °F 33.6 °F 24.8 °F 56% 30.15 in 10.0 mi NW 8.1 mph - N/A   Partly Cloudy
8:53 AM 42.8 °F 37.0 °F 24.8 °F 49% 30.17 in 10.0 mi NNW 10.4 mph - N/A   Clear
9:45 AM 46.4 °F 39.8 °F 19.4 °F 34% 30.19 in 10.0 mi North 16.1 mph - N/A   Clear
10:45 AM 46.4 °F 40.4 °F 17.6 °F 32% 30.21 in 10.0 mi North 13.8 mph - N/A   Clear
11:45 AM 48.2 °F - 15.8 °F 27% 30.20 in 10.0 mi NNW 11.5 mph 17.3 mph N/A   Clear
12:45 PM 48.2 °F - 17.6 °F 30% 30.18 in 10.0 mi WNW 11.5 mph - N/A   Clear
1:45 PM 50.0 °F - 17.6 °F 28% 30.16 in 10.0 mi NW 9.2 mph 15.0 mph N/A   Clear
2:45 PM 50.0 °F - 15.8 °F 26% 30.16 in 10.0 mi NW 11.5 mph - N/A   Clear
3:45 PM 50.0 °F - 15.8 °F 26% 30.17 in 10.0 mi WNW 11.5 mph - N/A   Clear
4:45 PM 48.2 °F - 17.6 °F 30% 30.19 in 10.0 mi NW 11.5 mph - N/A   Clear
5:45 PM 44.6 °F 40.7 °F 17.6 °F 34% 30.21 in 10.0 mi WNW 6.9 mph - N/A   Clear
6:45 PM 37.4 °F - 24.8 °F 60% 30.22 in 10.0 mi Calm Calm - N/A   Clear
7:50 PM 37.4 °F - 24.8 °F 60% 30.23 in 10.0 mi Calm Calm - N/A   Clear
8:47 PM 33.8 °F 29.6 °F 26.6 °F 75% 30.24 in 10.0 mi NNE 4.6 mph - N/A   Clear
11:15 PM 30.2 °F - 24.8 °F 80% 30.26 in 10.0 mi Calm Calm - N/A   Clear
11:35 PM 30.2 °F 26.7 °F 23.0 °F 75% 30.27 in 10.0 mi West 3.5 mph - N/A   Clear
11:55 PM 30.2 °F - 21.2 °F 69% 30.27 in 10.0 mi Calm Calm - N/A   Clear